Wind_Speed
21 23 22 23 24 21 22 27 28 21 19 21 21 23 23 27 32 38 41 44 47 46 46 45 42 41 37 37 37 38 35 35 40 40 39 36 35 34 32 33 30 27 32
22 24 24 23 19 18 20 21 19 19 19 22 24 22 27 33 38 40 42 43 44 45 43 40 38 37 35 33 33 33 33 32 37 37 36 33 31 30 29 29 29 29 31
24 23 21 19 19 20 22 20 20 22 25 25 27 31 35 38 40 40 43 43 42 41 39 35 31 30 29 25 24 25 26 27 29 33 33 30 27 26 29 30 29 24 24
19 17 18 17 20 18 19 23 25 25 26 30 33 35 37 38 40 40 38 37 34 32 31 30 29 27 25 25 29 30 30 30 29 25 29 28 28 27 26 27 28 24 26
13 17 20 21 19 23 24 24 26 27 28 30 33 36 40 41 37 36 33 30 30 31 31 30 30 30 32 33 35 34 35 33 30 28 26 26 25 25 25 25 28 28 31
14 16 17 21 25 27 25 24 24 25 29 34 33 36 37 34 31 28 31 30 30 31 32 30 32 31 31 33 37 36 34 33 31 30 26 24 24 24 25 26 26 26 30
12 15 20 24 23 21 19 20 24 32 35 34 30 29 26 27 27 28 32 34 34 33 34 33 35 30 33 37 33 29 27 26 28 31 29 28 29 25 27 25 26 25 24
18 21 23 22 21 22 23 26 29 31 29 27 26 25 28 28 31 31 31 31 30 31 29 26 22 27 34 31 32 33 32 30 28 30 32 29 29 29 29 28 27 26 24
21 23 25 23 22 23 25 26 25 24 24 24 24 27 29 29 33 29 30 24 26 26 23 24 27 26 29 31 32 32 33 33 31 32 33 34 33 32 30 30 30 28 28
23 27 25 22 22 21 22 21 21 21 23 25 26 30 32 36 32 28 26 25 25 24 22 23 25 29 26 28 31 33 35 30 27 25 27 32 35 36 36 32 30 30 28
24 31 24 21 21 21 21 23 24 26 27 28 29 29 35 34 29 27 26 26 24 24 27 29 23 22 24 25 27 31 31 23 18 19 21 25 27 31 36 35 31 29 26
28 24 21 22 22 22 24 25 28 29 31 32 32 32 33 30 28 29 29 28 27 27 29 24 20 20 24 27 30 31 32 20 15 15 16 17 18 23 30 35 32 29 27
21 21 20 21 22 23 25 28 30 33 34 34 33 31 27 26 29 30 30 29 27 24 18 17 17 22 25 25 27 28 26 18 13 15 18 16 20 18 17 26 29 26 26
18 18 20 22 24 27 31 33 34 34 33 30 28 25 26 28 29 28 23 22 17 14 12 14 19 24 24 28 23 20 17 18 16 18 20 20 19 16 15 15 23 25 26
18 20 22 25 27 31 34 36 29 23 20 20 20 23 23 22 17 12 11 9 10 11 15 19 21 20 23 23 20 19 18 17 17 18 23 29 14 15 15 16 20 21 22
23 25 23 25 30 33 34 29 18 14 14 16 18 17 16 12 10 9 11 13 15 17 18 19 20 21 20 19 18 16 17 17 18 20 20 25 17 9 11 16 20 20 18
19 22 22 29 33 29 24 14 13 12 12 13 13 14 14 12 14 16 19 21 22 21 20 18 18 19 19 19 18 17 17 17 18 19 19 18 18 9 11 9 11 14 17
17 22 27 31 25 22 10 10 10 9 9 10 11 12 13 16 17 16 17 20 19 17 17 17 18 18 20 20 19 18 16 14 14 15 16 15 19 11 6 6 8 13 13
45 30 28 18 23 7 8 8 8 7 8 9 8 9 11 13 15 20 19 21 22 20 17 17 18 19 18 19 20 19 18 15 13 12 12 12 17 9 9 9 7 10 12
26 20 11 13 12 6 8 8 9 9 9 7 6 7 10 12 14 19 18 21 22 21 18 19 20 20 21 20 19 19 17 14 11 9 7 8 16 10 7 5 6 15 8
11 5 6 7 7 9 10 10 11 11 11 9 8 7 7 14 15 16 19 21 22 21 18 19 20 21 21 20 20 19 17 17 14 9 5 5 14 18 19 20 16 17 31
3 6 6 6 9 9 13 13 13 13 12 15 13 7 6 12 18 15 18 21 22 20 18 19 20 19 21 20 19 18 17 17 16 13 7 5 8 14 15 17 21 25 27
5 5 9 10 10 10 12 16 17 13 11 13 13 11 12 15 15 17 16 18 20 19 17 19 20 20 21 21 16 17 18 18 19 16 11 6 6 8 9 13 16 21 16
8 10 13 13 14 12 12 11 11 9 9 10 11 11 13 18 14 17 19 17 16 16 16 17 18 18 18 19 15 15 18 18 20 20 18 12 6 8 9 14 13 13 18
13 13 12 10 13 11 11 10 10 13 14 13 14 11 11 10 15 19 17 16 13 12 13 14 15 15 15 15 14 15 16 16 18 18 16 16 12 4 9 13 14 15 12
13 14 15 15 13 10 10 9 10 10 11 11 10 8 8 9 11 15 15 13 11 10 10 11 11 12 13 12 13 13 14 15 16 15 13 15 14 15 8 7 13 20 18
Wind_Direction
277 292 291 283 282 286 301 304 291 286 287 288 280 277 285 286 287 289 293 296 299 303 306 305 304 302 298 292 289 288 285 284 283 284 284 284 284 285 284 282 278 273 272
286 288 280 286 287 292 300 297 292 290 290 287 288 286 286 288 295 299 299 301 303 304 304 303 303 301 299 297 293 292 289 286 284 284 284 286 285 278 274 273 271 268 254
280 277 283 281 283 289 286 285 289 285 288 300 300 298 300 300 300 300 310 309 309 310 309 307 306 304 302 301 300 298 296 295 293 291 288 284 280 277 269 265 268 268 267
272 273 276 281 281 286 289 281 288 289 295 300 297 299 303 309 308 307 308 309 313 316 316 314 315 314 313 315 312 306 301 298 298 293 289 288 284 275 270 267 267 269 265
271 279 282 283 279 290 292 289 289 291 295 297 302 307 307 307 307 307 305 306 312 313 311 311 311 312 300 299 305 305 302 298 296 293 286 282 283 280 276 269 264 263 254
266 275 272 277 280 283 286 290 290 289 299 297 304 301 300 300 302 294 299 311 315 319 309 304 303 300 300 303 301 299 294 291 289 289 284 285 280 278 272 272 271 266 262
262 284 290 289 288 290 300 289 283 288 300 298 298 296 298 306 308 311 315 320 321 316 313 304 303 300 305 305 302 301 302 295 291 287 282 277 278 274 269 270 267 264 260
295 297 305 306 295 290 290 289 297 299 298 301 300 301 310 315 315 318 320 320 324 321 317 310 308 307 310 302 306 307 301 295 286 282 282 279 276 274 266 265 262 265 263
302 316 316 309 303 298 294 294 294 297 300 305 308 309 312 316 317 315 316 316 329 331 316 310 311 311 307 309 305 305 300 298 286 273 270 271 269 268 266 261 260 260 261
313 319 316 306 299 296 297 301 302 304 309 311 311 313 317 317 316 316 313 308 317 321 320 314 311 311 314 316 317 312 312 300 286 274 271 274 269 261 258 257 259 256 258
316 319 309 305 306 307 310 314 317 314 312 311 312 305 310 313 312 313 314 311 313 312 314 311 312 312 317 318 324 332 329 309 292 285 284 278 270 261 253 251 252 255 253
313 309 308 311 313 313 311 310 308 308 309 308 307 305 309 308 309 309 308 306 307 308 312 309 316 319 324 330 333 335 340 326 304 294 297 299 288 269 259 247 243 249 249
309 310 309 311 310 309 309 308 306 302 299 302 306 310 310 306 306 304 303 304 305 312 312 312 321 325 328 333 333 339 348 344 324 296 291 303 295 288 283 241 238 243 245
301 298 302 305 308 310 311 310 307 299 298 303 307 310 310 308 304 300 298 303 312 321 322 323 321 323 324 333 330 338 358 360 358 345 330 307 276 272 258 239 235 244 244
297 294 303 311 311 311 310 314 311 308 307 310 315 319 317 315 319 322 314 304 316 324 330 323 318 316 316 324 325 319 319 330 335 338 345 346 299 259 249 240 235 239 238
288 293 306 308 305 316 317 317 318 315 316 320 329 332 340 350 5 357 344 336 335 332 329 327 326 325 326 327 327 322 322 322 320 325 334 342 344 269 268 252 233 240 239
293 304 309 311 316 315 318 319 320 323 324 332 351 1 6 17 20 18 5 354 347 342 337 336 337 335 335 335 332 334 321 320 329 332 336 343 358 335 272 252 220 222 217
323 327 319 315 316 323 320 328 326 329 339 356 3 7 20 30 26 12 355 351 350 343 340 343 344 343 341 339 337 336 333 318 319 329 338 344 353 360 316 256 198 208 203
331 324 315 315 321 340 345 349 345 351 359 359 16 26 26 24 8 1 356 353 356 357 354 354 352 350 351 349 345 343 340 339 333 336 342 1 25 31 33 67 167 181 203
316 319 313 317 325 13 5 360 354 351 349 360 17 15 16 12 1 357 351 353 355 359 0 1 360 0 359 356 358 2 358 353 345 345 353 25 44 49 69 64 177 204 208
324 275 330 311 352 346 357 352 354 353 350 340 346 349 4 14 3 4 3 356 357 1 5 6 6 6 4 9 14 16 19 21 20 22 45 63 75 52 118 93 109 139 136
263 25 354 341 318 333 347 337 337 331 339 336 318 334 335 2 5 355 356 356 358 3 7 7 9 12 11 13 18 26 29 31 30 30 45 108 124 94 100 129 123 128 132
29 355 331 318 305 328 331 326 334 351 349 339 348 348 338 328 343 351 349 354 358 358 4 8 8 10 14 17 29 37 37 35 35 40 37 67 142 149 142 119 144 154 147
4 340 330 330 311 312 321 322 329 345 348 349 336 322 327 321 333 339 339 345 354 352 356 4 6 9 15 22 38 40 37 45 51 45 43 51 84 165 164 161 162 166 158
6 6 353 339 322 328 314 312 323 331 332 330 328 323 316 331 316 319 328 338 345 345 348 359 4 9 12 19 27 34 38 39 32 42 45 46 47 94 173 187 180 172 183
22 17 14 8 3 358 360 357 345 335 324 326 322 317 309 306 309 314 324 334 338 336 343 354 2 8 10 13 22 27 32 35 33 32 43 53 59 65 89 159 184 186 180
Height
3153 3155 3155 3153 3151 3151 3150 3148 3146 3144 3143 3141 3140 3138 3136 3134 3131 3128 3124 3120 3116 3110 3106 3102 3099 3095 3092 3089 3087 3084 3082 3080 3075 3075 3075 3075 3075 3074 3074 3072 3071 3071 3071
3149 3150 3149 3148 3147 3146 3145 3143 3141 3139 3137 3136 3134 3132 3129 3126 3122 3118 3113 3108 3104 3100 3095 3091 3088 3085 3082 3080 3077 3074 3072 3070 3065 3063 3063 3064 3063 3063 3063 3063 3062 3061 3061
3145 3147 3145 3145 3143 3141 3140 3138 3135 3133 3131 3128 3126 3124 3121 3117 3113 3108 3103 3098 3094 3091 3086 3082 3078 3075 3072 3070 3068 3065 3063 3060 3058 3054 3052 3053 3053 3053 3052 3051 3051 3052 3051
3144 3144 3144 3142 3141 3139 3136 3133 3130 3126 3124 3121 3118 3116 3113 3109 3104 3100 3095 3091 3087 3083 3080 3076 3072 3069 3067 3064 3062 3059 3056 3053 3050 3047 3044 3043 3042 3043 3042 3043 3042 3043 3044
3142 3142 3142 3139 3137 3134 3131 3127 3124 3122 3119 3116 3112 3109 3106 3102 3098 3095 3090 3086 3082 3077 3074 3070 3067 3064 3061 3057 3053 3050 3047 3044 3041 3039 3037 3035 3035 3034 3034 3034 3033 3034 3034
3138 3138 3136 3135 3132 3129 3126 3124 3120 3116 3114 3111 3108 3104 3100 3096 3092 3087 3084 3079 3074 3069 3065 3062 3059 3056 3054 3050 3047 3042 3038 3035 3033 3030 3029 3028 3028 3027 3027 3026 3026 3026 3026
3133 3132 3132 3130 3127 3123 3121 3118 3114 3111 3109 3105 3100 3097 3094 3090 3085 3079 3074 3070 3064 3060 3056 3052 3049 3047 3045 3040 3038 3034 3031 3028 3024 3021 3020 3020 3019 3019 3018 3019 3018 3018 3019
3128 3127 3125 3122 3120 3117 3113 3110 3106 3105 3101 3098 3094 3090 3086 3082 3076 3071 3067 3063 3057 3052 3048 3044 3041 3039 3037 3031 3028 3025 3022 3020 3018 3013 3010 3011 3010 3010 3010 3010 3010 3011 3012
3122 3121 3118 3115 3113 3111 3107 3104 3100 3096 3094 3091 3087 3083 3079 3075 3069 3064 3060 3057 3052 3048 3043 3039 3035 3033 3030 3025 3020 3015 3012 3010 3007 3004 3001 3000 3001 3001 3001 3001 3002 3004 3004
3116 3115 3112 3109 3106 3105 3101 3098 3094 3090 3087 3084 3081 3076 3071 3066 3062 3056 3054 3051 3047 3042 3039 3035 3030 3027 3023 3018 3012 3006 3000 2997 2993 2993 2992 2990 2988 2989 2991 2993 2994 2995 2997
3109 3107 3105 3102 3099 3097 3094 3091 3087 3083 3080 3077 3074 3070 3065 3058 3054 3050 3047 3044 3040 3037 3033 3030 3025 3022 3018 3013 3007 2999 2991 2986 2984 2983 2983 2980 2978 2977 2979 2982 2986 2988 2990
3103 3101 3099 3097 3095 3092 3089 3085 3082 3077 3074 3069 3065 3062 3057 3052 3048 3044 3040 3038 3035 3032 3028 3024 3020 3016 3012 3006 3000 2994 2987 2981 2979 2978 2975 2972 2970 2969 2969 2972 2977 2981 2984
3100 3097 3095 3094 3091 3087 3084 3079 3075 3070 3065 3061 3057 3053 3049 3046 3042 3038 3034 3031 3028 3024 3022 3019 3015 3011 3007 3003 2997 2992 2985 2979 2976 2974 2970 2968 2966 2963 2961 2963 2969 2974 2977
3096 3094 3091 3089 3085 3081 3076 3071 3066 3061 3056 3052 3049 3046 3043 3038 3035 3031 3028 3025 3022 3020 3018 3014 3011 3007 3003 2999 2995 2991 2985 2979 2974 2970 2966 2961 2959 2958 2958 2959 2963 2967 2970
3090 3088 3087 3083 3078 3073 3068 3063 3056 3051 3049 3046 3044 3041 3037 3032 3028 3025 3024 3022 3019 3017 3015 3012 3009 3005 3001 2997 2992 2988 2984 2979 2975 2969 2964 2958 2952 2953 2954 2955 2958 2960 2963
3085 3082 3079 3077 3071 3065 3059 3053 3049 3047 3045 3043 3041 3037 3033 3029 3026 3024 3022 3020 3017 3015 3012 3008 3004 3000 2996 2993 2989 2985 2980 2976 2972 2967 2962 2956 2950 2948 2949 2949 2951 2954 2958
3078 3073 3071 3067 3063 3057 3052 3048 3046 3045 3042 3041 3038 3035 3032 3030 3027 3025 3022 3019 3015 3012 3008 3005 3001 2997 2994 2989 2985 2981 2977 2973 2969 2965 2960 2956 2950 2946 2945 2945 2947 2949 2953
3068 3068 3064 3060 3055 3052 3049 3046 3044 3043 3041 3039 3038 3036 3033 3031 3029 3027 3024 3020 3016 3011 3006 3003 2999 2994 2990 2986 2982 2977 2973 2970 2966 2962 2959 2955 2950 2944 2941 2941 2942 2946 2950
3059 3058 3057 3054 3051 3049 3048 3045 3044 3042 3041 3039 3038 3036 3035 3033 3030 3027 3023 3018 3013 3009 3005 3001 2997 2992 2988 2983 2979 2974 2970 2966 2963 2960 2957 2955 2951 2946 2944 2943 2944 2947 2950
3056 3054 3052 3051 3049 3048 3047 3046 3044 3043 3041 3040 3038 3037 3035 3033 3030 3026 3021 3017 3013 3008 3004 3000 2996 2991 2986 2982 2977 2972 2968 2964 2961 2959 2957 2956 2954 2950 2948 2945 2945 2946 2949
3053 3051 3050 3049 3048 3048 3047 3045 3044 3043 3041 3040 3039 3037 3035 3033 3029 3025 3021 3016 3012 3008 3004 3000 2995 2991 2987 2982 2977 2973 2969 2965 2962 2959 2958 2957 2957 2955 2954 2953 2952 2954 2958
3051 3051 3050 3050 3049 3047 3046 3045 3043 3041 3040 3038 3036 3034 3033 3031 3027 3024 3020 3016 3011 3008 3004 3000 2996 2992 2988 2983 2979 2975 2972 2968 2965 2962 2960 2959 2960 2960 2960 2962 2962 2965 2967
3052 3052 3052 3050 3047 3047 3046 3043 3042 3039 3038 3035 3033 3032 3031 3029 3027 3023 3019 3016 3012 3008 3004 3001 2997 2993 2989 2985 2981 2979 2976 2973 2969 2966 2963 2962 2962 2963 2965 2966 2969 2971 2973
3054 3053 3052 3049 3047 3045 3044 3042 3039 3038 3036 3034 3032 3030 3029 3027 3025 3022 3018 3015 3011 3008 3005 3002 2999 2995 2992 2988 2985 2982 2979 2976 2973 2970 2968 2965 2964 2965 2967 2970 2971 2973 2976
3055 3052 3049 3047 3045 3042 3040 3039 3037 3035 3032 3030 3029 3027 3026 3023 3021 3019 3016 3013 3010 3007 3005 3002 3000 2997 2994 2991 2988 2985 2983 2980 2978 2975 2973 2970 2967 2966 2967 2970 2972 2975 2977
3056 3053 3050 3046 3043 3040 3038 3036 3034 3031 3029 3027 3024 3023 3021 3019 3017 3015 3013 3010 3008 3006 3004 3002 3000 2998 2995 2993 2990 2988 2986 2983 2981 2979 2977 2974 2972 2970 2968 2970 2972 2975 2978